STARLINK-1181 (45086 NORAD) Tracking and Keplerian Element Data

This shows tracking and keplerian element data for the satellite.

Feedback or suggestion? Click here.




ElementValue
Catalog45086
NameSTARLINK-1181
Epoch Orbit175
Epoch Day188.91667824
Epoch Year2020
RAAN187.1574
Inclination52.9997
Eccentricity0.0001327
Argument of Perigee80.1232
Mean Anonmoly210.1923
Mean Motion15.05561735
Decay Rate0.00037411
L11 45086U 20006AU 20188.91667824 .00037411 00000-0 25744-2 0 9993
L22 45086 52.9997 187.1574 0001327 80.1232 210.1923 15.05561735 1757

Live tracking and technical data element details for STARLINK-1181 (NORAD 45086). STARLINK-1181 can be tracked NOW for your location showing map with azimuth and elevation plus other details from your city location.

Track the satellite on the map from your city or location and see movement details for azimuth, elevation, latitude, longitude, range, height, and movement on the map or in text.







IsCatalogInMostPopularTable: catalog: 45086, numindb: 30
Update: records affected: 1



GetName: 45086 STARLINK-1181

Hit Count: updated at: Wed, 08 Jul 2020 05:15:44 GMT